Flag for Albania Weather past 2 weeks in Durrës, Albania

68 °F

Broken clouds.

Feels Like: 68 °F
Forecast: 68 / 75 °F
Wind: 8 mph from Southeast

Location: Tirana Airport

Current Time: Oct 8, 2015 at 7:00:42 PM

Latest Report: Oct 8, 2015 at 6:20 PM

Visibility: N/A

Pressure: 29.95 "Hg

Humidity: 78%

Dew point: 61 °F

Location of DurrësLocation

Historic Weather in Durrës — Graph


Durrës temperature yesterday

Maximum temperature yesterday: 72 °F (at 12:50 PM)
Minimum temperature yesterday: 61 °F (at 8:50 AM)
Average temperature yesterday: 66 °F

Past Weeks' High & Low Weather Summary

High84 °F (Sep 24, 12:20 PM)100% (Oct 8, 6:50 AM)30.27 "Hg (Oct 8, 6:50 AM)
Low54 °F (Sep 26, 5:50 AM)26% (Oct 2, 3:20 PM)29.74 "Hg (Oct 7, 1:50 PM)
Average67 °F68%30.01 "Hg
* Reported Sep 23 5:20 PM — Oct 8 5:50 PM, Durrës, Weather by CustomWeather, © 2015

Note: Actual official high and low records may vary slightly from our data, if they occured in-between our weather recording intervals... More about our weather records


Durrës weather history for previous 24 hours

Time TempWeatherWind HumidityBarometerVisibility
5:50 PM
Thu, Oct 8
70 °FBroken clouds.8 mph73%29.95 "HgN/A
5:20 PM70 °FBroken clouds.8 mph73%29.95 "HgN/A
4:50 PM70 °FBroken clouds.10 mph69%29.92 "HgN/A
4:20 PM70 °FBroken clouds.12 mph69%29.92 "HgN/A
3:50 PM70 °FBroken clouds.10 mph69%29.92 "HgN/A
3:20 PM72 °FBroken clouds.10 mph69%29.92 "HgN/A
2:50 PM70 °FBroken clouds.12 mph69%29.92 "HgN/A
2:20 PM70 °FScattered clouds.8 mph73%29.92 "HgN/A
1:50 PM68 °FBroken clouds.10 mph78%29.92 "HgN/A
1:20 PM68 °FLight rain. Broken clouds.10 mph83%29.92 "HgN/A
12:50 PM68 °FBroken clouds.9 mph83%29.92 "HgN/A
12:20 PM70 °FBroken clouds.8 mph78%29.92 "HgN/A
11:50 AM68 °FLight rain. Broken clouds.8 mph78%29.92 "HgN/A
11:20 AM66 °FBroken clouds.6 mph88%29.92 "HgN/A
10:50 AM66 °FBroken clouds.6 mph88%29.92 "HgN/A
10:20 AM66 °FHeavy rain. Low clouds.5 mph83%29.92 "HgN/A
9:50 AM66 °FLight rain. Partly sunny.6 mph83%29.89 "HgN/A
9:20 AM64 °FLight rain. Partly sunny.5 mph94%29.89 "HgN/A
8:50 AM64 °FBroken clouds.3 mph94%29.89 "HgN/A
8:20 AM63 °FBroken clouds.2 mph94%29.86 "HgN/A
7:50 AM61 °FBroken clouds.3 mph94%29.86 "HgN/A
7:20 AM59 °FPassing clouds.2 mph94%29.86 "HgN/A
6:50 AM59 °FPassing clouds.5 mph100%29.83 "HgN/A
5:20 AM61 °FPassing clouds.No wind94%29.83 "Hg4 mi
4:50 AM61 °FPassing clouds.5 mph94%29.83 "Hg4 mi
4:20 AM61 °FPassing clouds.3 mph94%29.83 "Hg4 mi
3:50 AM63 °FPassing clouds.No wind94%29.83 "Hg5 mi
3:20 AM63 °FPassing clouds.3 mph94%29.83 "Hg5 mi
2:50 AM63 °FPassing clouds.2 mph94%29.83 "HgN/A
2:20 AM63 °FPassing clouds.No wind94%29.83 "HgN/A
1:50 AM63 °FLight rain. Partly cloudy.3 mph94%29.83 "HgN/A
12:50 AM63 °FLight rain. Partly cloudy.6 mph94%29.83 "HgN/A
12:20 AM63 °FRain. Mostly cloudy.7 mph94%29.83 "HgN/A
11:50 PM
Wed, Oct 7
63 °FStrong thunderstorms. Mostly cloudy.10 mph94%29.86 "Hg3 mi
11:20 PM64 °FPartly cloudy.No wind88%29.80 "HgN/A
10:50 PM64 °FPartly cloudy.3 mph83%29.80 "HgN/A
10:20 PM64 °FPartly cloudy.3 mph83%29.77 "HgN/A
9:50 PM64 °FPartly cloudy.2 mph78%29.77 "HgN/A
9:20 PM66 °FPartly cloudy.3 mph73%29.77 "HgN/A
8:50 PM64 °FPartly cloudy.6 mph83%29.77 "HgN/A
8:20 PM66 °FPartly cloudy.5 mph78%29.77 "HgN/A
7:50 PM66 °FPartly cloudy.6 mph78%29.77 "HgN/A
7:20 PM68 °FPartly cloudy.5 mph73%29.77 "HgN/A
Weather by CustomWeather, © 2015

See weather overviewHow to use our weather pages